Tracking 28790 objects as of 19-Apr-2024
HD Live streaming from Space Station
objects crossing your sky now

FENGYUN 1C DEB

Track FENGYUN 1C DEB now!
10-day predictions


NORAD ID: 31934
Int'l Code: 1999-025CMK
Perigee: 635.4 km
Apogee: 751.2 km
Inclination: 98.9 °
Period: 98.5 minutes
Semi major axis: 7064 km
RCS: 0.0074 m2 (small)
Launch date: May 10, 1999
Source: People's Republic of China (PRC)
Launch site: Taiyaun Space Center, China (TSC)

Note: This is SATELLITE DEBRIS
Your satellite tracking list
Your tracking list is empty




NASA's NSSDC Master Catalog

Two Line Element Set (TLE):
1 31934U 99025CMK 24101.37647376  .00017361  00000-0  32898-2 0  9996
2 31934  98.9087  75.9976 0081968   9.8167 350.4610 14.62186932884123
Source of the keplerian elements: AFSPC